User: anonymous
Location: Fairmont
(43.6520°N, 94.4610°W)
Time: 06:59:12
(UTC-05:00)
Language:

Cosmos-2242 - Orbit

View from above orbital plane
View from above orbital plane
View from above satellite
View from above satellite

Ground track
Ground track

The orbit data is extracted from the following two-line orbital elements,

1 22626U 93024A   14292.79517857  .00002192  00000-0  24631-3 0  2371
2 22626 082.5242 236.8927 0021458 102.9311 257.4303 14.86150104161773
Epoch (UTC): 19 October 2014 19:05:03
Eccentricity: 0.0021458
inclination: 82.5242°
perigee height: 595 km
apogee height: 625 km
right ascension of ascending node: 236.8927°
argument of perigee: 102.9311°
revolutions per day: 14.86150104
mean anomaly at epoch: 257.4303°
orbit number at epoch: 16177

The dashed part of the orbit path shows where the satellite is in the earth's shadow,  

DLR